SCP
0 0 0 0 0 0 0 0 0 0 0 0 0 0 1 1 1 1 1 1 1 1 1 1 1 2 2 2 2 2 2 1 1 1 1 1 1 1 1 1 1 1 1 1
0 0 0 0 0 0 0 0 0 0 0 0 0 0 0 1 1 1 1 1 1 1 1 1 2 2 2 2 2 2 1 1 1 1 1 1 1 1 1 1 1 1 1 1
0 0 0 0 0 0 0 0 0 0 0 0 0 0 0 1 1 2 2 1 1 1 2 2 3 3 4 4 3 2 1 1 1 1 1 1 1 1 1 1 1 1 1 1
0 0 0 0 0 0 0 0 0 0 0 0 0 0 0 0 1 2 1 1 1 1 2 3 3 4 4 4 4 3 1 1 1 1 1 1 1 1 1 1 1 1 1 1
0 0 0 0 0 0 0 0 0 0 0 0 0 0 0 0 1 1 1 1 1 2 2 3 3 3 3 3 2 2 2 1 1 1 1 1 1 1 1 1 1 1 1 1
0 0 0 0 0 0 0 0 0 0 0 0 0 0 0 0 0 1 1 1 1 2 3 3 3 3 2 2 1 1 2 2 2 2 2 1 1 1 1 1 1 1 1 1
0 0 0 0 0 0 0 0 0 0 0 0 0 0 0 0 0 0 1 1 1 2 2 3 3 3 3 2 2 2 2 2 3 3 2 2 2 1 1 1 1 1 1 1
0 0 0 0 0 0 0 0 0 0 0 0 0 0 0 0 0 1 1 1 1 2 2 2 3 3 3 2 2 2 3 3 3 3 2 2 2 2 2 2 2 1 1 1
0 0 0 0 0 0 0 0 0 0 0 0 0 0 0 1 1 1 1 1 1 2 2 2 2 3 3 3 3 3 4 4 4 3 3 2 2 2 2 2 2 1 1 1
0 0 0 0 0 0 0 0 0 0 0 0 0 0 0 1 1 1 2 2 2 2 2 2 2 3 3 3 4 4 5 5 4 4 3 3 2 2 2 2 2 1 1 1
0 0 0 0 0 0 0 0 0 0 0 0 0 0 1 1 1 2 2 2 2 2 3 3 3 3 3 4 4 4 4 5 4 4 3 3 2 2 2 2 2 1 1 1
0 0 0 0 0 0 0 0 0 0 0 0 0 0 1 1 2 2 2 2 2 2 3 3 3 3 3 3 4 4 4 4 4 4 3 3 2 2 2 2 2 1 1 1
0 0 0 0 0 0 0 0 0 0 0 0 0 1 1 1 2 2 2 2 2 2 3 3 3 3 3 3 4 4 4 4 4 4 4 3 3 3 2 2 2 2 2 2
0 0 0 0 0 0 0 0 0 0 0 0 0 1 1 1 2 2 2 2 2 2 3 3 3 3 2 3 3 4 5 5 4 4 4 4 3 3 3 3 2 2 2 2
0 0 0 0 0 0 0 0 0 0 0 0 0 0 1 1 2 2 2 2 3 3 3 3 3 2 2 2 3 4 4 4 4 4 4 3 3 3 4 4 4 3 3 3
0 0 0 0 0 0 0 0 0 0 0 0 0 1 1 2 2 2 2 2 3 3 3 3 3 2 2 3 3 4 4 5 4 4 4 4 3 3 4 4 5 5 4 4
0 0 0 0 0 0 0 0 0 0 0 1 1 1 2 2 3 3 2 3 3 3 3 3 3 3 3 3 4 5 6 5 5 5 4 4 4 4 4 4 5 5 5 5
0 0 0 0 0 0 0 1 1 1 1 1 1 2 3 4 4 3 3 3 3 3 3 3 3 3 3 3 5 7 8 7 6 5 5 5 4 4 4 4 4 4 5 5
0 0 0 0 0 0 0 1 1 1 1 1 2 3 4 5 4 4 3 3 4 4 3 3 3 3 4 5 7 9 9 7 6 5 5 5 5 4 4 4 4 4 4 4
0 0 0 0 0 0 0 1 1 1 1 1 2 3 4 4 3 3 3 3 4 4 3 3 3 4 5 7 9 9 8 7 6 5 5 4 4 4 4 4 4 4 3 3
0 0 0 0 0 0 1 1 1 1 1 1 2 4 3 3 3 3 3 3 4 4 3 4 4 5 6 7 8 7 6 5 5 4 3 3 3 3 3 3 3 3 2 2
0 0 0 0 0 1 1 1 1 1 1 1 3 3 3 3 3 3 3 4 4 4 4 5 5 5 5 5 5 5 5 4 3 3 2 2 2 2 3 3 3 2 2 2
1 0 0 1 1 2 2 2 2 2 2 2 2 3 3 3 3 4 4 5 5 4 5 5 4 4 4 4 4 4 3 3 3 2 2 2 2 2 2 2 2 2 2 2
1 1 1 2 2 4 4 4 3 3 3 3 3 3 2 3 3 4 5 5 4 4 4 4 4 4 5 5 4 3 3 3 3 3 3 3 2 2 2 2 2 2 2 2
1 1 1 2 3 5 5 4 3 3 3 3 3 3 2 3 3 4 4 5 4 4 4 4 5 5 5 4 3 3 3 3 4 4 4 3 3 3 3 3 3 3 3 3
1 1 1 2 3 4 4 3 2 2 2 2 3 3 3 3 3 4 4 4 4 4 3 4 5 5 4 3 2 2 3 3 4 4 4 4 3 3 3 4 4 3 3 3
Wind_Speed
3 5 3 4 5 5 5 3 2 3 1 2 3 3 4 8 8 9 9 10 11 12 9 8 8 8 8 7 7 7 7 6 5 3 3 2 2 2 2 3 4 4 4 4
5 1 4 4 4 4 4 2 0 2 2 2 1 3 2 8 12 11 11 12 11 9 7 8 9 9 9 9 8 8 8 8 7 5 3 2 2 2 2 2 3 4 4 4
5 3 3 5 4 4 2 4 3 1 3 4 2 4 2 3 4 6 7 8 8 11 11 10 10 11 10 11 10 9 8 7 7 5 3 2 2 1 1 1 2 3 4 4
3 3 3 4 4 6 3 4 5 3 3 2 2 2 6 3 4 7 9 9 11 10 9 9 10 11 11 11 10 8 8 7 6 6 5 5 4 4 4 3 2 3 4 4
4 3 3 4 6 7 5 2 4 3 4 2 2 1 8 1 4 10 11 11 11 10 11 11 12 11 10 10 9 8 8 7 6 6 7 6 4 4 2 2 3 3 3 3
4 3 4 5 3 5 5 7 7 6 5 1 2 3 7 4 8 7 9 10 10 10 11 10 9 8 8 8 7 7 7 7 6 7 6 7 7 5 4 3 3 3 2 2
1 2 2 3 4 3 5 7 5 4 3 5 2 2 9 8 7 8 9 9 9 10 10 10 9 10 9 9 9 8 8 7 7 7 7 7 7 6 6 5 4 4 3 3
5 4 4 4 6 6 5 10 9 6 5 4 1 4 9 7 5 5 6 5 5 7 9 10 11 11 11 11 9 9 9 8 7 8 7 6 5 4 4 4 4 4 4 4
7 6 4 3 4 10 7 4 7 8 3 0 4 6 9 4 4 4 2 2 4 7 8 9 9 9 10 10 10 10 9 7 7 7 6 5 5 5 5 4 3 3 3 3
8 4 3 1 5 5 7 10 7 7 6 2 4 4 5 5 6 5 3 2 3 3 4 6 7 8 8 8 8 8 8 8 7 6 6 5 5 5 4 3 3 3 2 2
5 4 2 1 5 7 5 5 6 6 6 7 2 7 6 7 6 5 4 2 2 3 4 5 5 6 7 6 7 7 6 6 5 6 5 4 4 3 3 3 3 3 2 2
5 6 2 4 3 4 6 8 9 7 4 4 5 8 5 4 4 3 2 1 1 3 4 5 6 6 6 6 6 6 6 6 5 5 4 4 3 3 3 2 2 2 2 2
8 7 3 3 3 1 3 4 5 8 7 5 5 8 4 2 2 1 0 1 2 4 4 5 6 6 6 5 5 5 5 4 4 4 4 3 3 3 3 2 2 2 2 2
9 6 7 10 8 6 4 4 5 7 6 5 7 7 6 4 2 1 1 1 3 3 4 5 5 5 5 5 5 5 5 4 4 4 4 3 3 3 3 3 3 3 2 2
7 5 4 4 3 4 4 6 7 6 9 9 9 8 10 8 6 4 3 3 4 4 4 5 4 4 4 4 4 5 5 4 5 5 4 3 3 3 3 3 3 3 3 3
4 6 4 1 1 3 2 4 7 5 6 5 4 7 7 3 3 3 4 4 5 4 4 4 4 4 4 5 5 5 5 5 5 5 4 3 3 4 4 3 3 4 4 3
3 6 5 3 1 2 2 4 6 4 5 8 9 10 4 4 7 8 7 6 5 5 5 5 5 5 5 5 5 6 6 6 6 5 4 4 4 5 4 4 4 4 4 4
7 6 5 3 3 4 8 3 4 5 3 5 5 5 6 7 5 3 4 6 5 5 5 5 4 5 5 5 6 6 6 6 6 5 4 5 5 5 5 5 5 4 4 4
5 8 6 5 4 3 4 1 3 4 2 3 4 4 3 4 4 1 3 5 6 6 5 5 4 5 6 6 7 8 7 6 6 5 5 4 5 6 6 5 5 4 4 5
5 5 7 5 5 6 7 2 1 4 2 3 4 5 6 6 4 5 4 5 4 5 5 5 6 6 6 6 7 8 7 7 6 5 5 5 5 6 6 5 5 4 5 5
4 4 5 5 3 6 6 3 2 5 7 3 4 5 7 6 6 4 6 5 5 6 6 7 7 6 6 6 7 8 7 6 6 6 6 6 6 6 6 5 5 5 5 6
5 5 4 5 3 6 2 2 5 6 2 1 2 3 4 4 3 5 7 7 7 7 8 8 8 6 6 6 8 8 6 6 7 7 7 7 6 6 5 6 6 5 6 6
3 5 6 7 7 4 2 2 2 2 2 2 2 2 5 5 5 5 6 7 7 8 7 7 8 8 6 6 7 8 6 7 8 8 7 7 7 6 5 5 6 5 5 4
1 1 3 1 2 2 2 1 1 1 2 1 1 2 4 5 6 6 7 7 7 7 7 7 9 8 6 5 6 7 7 7 8 9 7 7 7 6 5 4 4 4 4 4
2 1 2 1 1 2 2 1 1 1 2 3 3 2 4 7 7 7 7 7 7 6 6 7 8 8 7 6 6 6 7 8 8 8 7 7 6 6 6 5 4 3 2 2
3 4 4 4 5 3 3 2 1 1 2 3 4 4 3 5 8 7 6 5 6 7 6 7 7 7 7 7 6 6 6 8 9 7 6 5 5 5 5 5 6 10 7 6
Wind_Direction
46 76 158 187 165 155 148 143 195 249 266 156 225 247 201 183 193 199 202 204 207 215 208 191 192 187 180 180 181 181 178 175 167 162 167 172 197 202 205 210 206 200 201 195
53 240 209 151 143 123 128 126 220 322 13 120 248 295 225 191 202 205 206 209 212 212 199 193 189 186 186 185 187 185 185 182 183 181 172 168 162 188 208 213 204 200 203 203
163 222 161 138 135 129 152 172 191 200 14 34 68 338 287 235 223 226 224 218 215 211 206 197 192 192 190 191 192 192 191 191 191 176 146 127 107 98 164 212 211 204 199 201
205 235 157 148 169 148 210 210 171 142 94 325 83 271 285 240 233 231 231 220 217 214 204 199 195 194 195 197 189 187 188 190 190 176 174 175 180 195 208 202 205 213 206 208
220 195 163 184 196 164 191 136 126 121 124 65 24 142 286 309 246 244 236 227 220 207 199 199 199 196 195 190 186 187 184 187 186 184 189 186 196 201 194 189 199 215 217 214
225 228 194 198 176 156 131 75 58 50 72 71 235 163 275 241 229 248 238 227 217 204 199 200 196 183 186 184 184 182 180 188 185 184 192 196 202 200 193 201 205 212 217 220
263 261 235 169 114 80 103 93 50 19 23 249 264 186 249 253 242 238 240 228 216 200 195 193 187 182 182 183 186 185 184 192 188 188 198 202 203 199 204 208 209 207 211 218
167 248 227 187 166 157 158 136 151 175 203 267 316 231 255 268 276 260 244 231 206 192 193 194 191 185 184 184 186 185 189 195 191 196 205 204 200 198 209 209 206 209 216 222
167 234 273 215 166 134 131 149 151 125 144 124 281 287 300 306 324 313 278 208 196 195 192 192 187 180 181 183 188 186 189 193 194 198 198 200 199 203 209 206 203 211 219 223
152 192 271 224 90 42 137 141 108 116 136 204 291 283 260 283 289 298 290 242 212 183 184 183 179 174 176 182 182 181 186 192 195 195 198 201 199 205 203 192 199 206 212 211
135 145 303 99 163 162 111 100 106 110 142 148 207 267 234 236 251 261 269 258 205 173 170 165 165 165 165 167 171 175 180 186 190 191 192 192 189 191 181 181 193 193 185 179
138 121 198 251 258 174 148 156 144 143 175 157 161 261 277 255 259 239 261 302 120 139 140 137 144 146 152 158 161 164 170 181 187 179 170 175 169 164 163 173 177 164 161 152
141 120 101 356 353 69 121 138 135 120 116 145 161 258 306 343 354 337 129 87 97 111 121 128 135 143 153 157 156 159 158 170 166 153 155 156 157 158 160 159 145 130 128 118
124 120 158 184 205 182 160 152 145 124 139 177 209 237 283 279 263 264 236 150 124 126 133 135 138 143 148 146 146 149 146 149 138 134 141 151 161 159 150 137 125 115 115 114
122 146 181 207 210 172 171 172 170 168 171 174 214 219 240 235 216 207 197 166 135 131 135 146 149 145 137 133 133 133 128 126 128 128 131 142 141 131 125 121 120 110 102 97
106 147 155 218 212 179 169 183 181 185 175 189 193 241 244 225 171 178 186 179 166 163 160 156 147 140 138 141 141 133 128 127 128 131 136 132 123 113 111 114 111 104 95 85
119 128 131 206 260 105 244 214 188 189 188 173 197 225 199 176 188 193 191 189 182 177 170 164 158 152 148 143 135 135 132 127 127 131 127 111 107 104 100 100 97 97 97 94
134 121 124 132 115 200 241 239 187 175 205 206 206 203 186 188 186 188 183 185 188 177 168 166 153 141 135 127 122 123 122 125 127 125 119 113 112 106 99 96 94 92 93 93
137 129 115 121 153 249 284 228 160 153 249 219 188 185 164 128 88 344 208 188 188 175 162 156 146 137 130 128 129 125 122 121 119 118 115 109 110 107 100 99 98 96 92 86
69 96 112 123 145 211 235 255 199 118 266 254 185 182 161 132 146 234 196 163 154 140 137 133 124 120 122 126 127 125 124 123 123 124 119 112 110 111 109 106 100 92 91 87
80 73 114 138 171 245 249 278 110 154 227 246 188 185 168 179 197 188 147 140 134 129 131 129 125 125 127 128 125 123 123 124 125 120 113 107 104 106 106 102 96 96 96 91
153 138 150 135 154 240 265 130 166 211 235 212 185 177 174 179 134 130 137 135 133 132 133 132 128 123 121 127 127 125 124 121 118 114 109 105 102 104 104 102 97 94 99 96
172 179 174 175 200 237 264 208 219 179 183 211 186 185 164 146 141 134 133 136 140 137 134 129 128 124 123 129 133 130 126 123 118 111 108 105 99 92 97 103 105 100 96 100
285 132 125 143 282 301 314 302 319 202 195 228 183 153 147 146 142 137 139 140 138 134 134 131 129 130 130 126 121 123 127 124 120 117 113 109 104 98 87 84 91 103 107 111
223 146 115 124 275 347 4 7 348 8 70 76 80 108 136 137 135 140 142 143 142 138 137 137 136 135 137 129 122 125 129 127 123 121 116 111 106 107 96 79 61 76 73 117
212 175 159 199 210 183 243 278 310 80 76 91 95 86 92 128 133 133 137 142 140 139 137 133 131 134 133 131 130 131 134 135 132 128 125 121 119 113 110 104 79 54 63 71